Weather History for Dayton, OH

Change the Weather History Date:

Thursday, August 14, 2014

  Actual Average Record
Temperature  
Mean Temperature 69 °F 73 °F  
Max Temperature 79 °F 83 °F 96 °F (1901)
Min Temperature 59 °F 63 °F 44 °F (1964)
Degree Days  
Heating Degree Days 0 0  
Month to date heating degree days 0 0  
Since 1 June heating degree days 6 22  
Since 1 July heating degree days 4 0  
Cooling Degree Days 4 8  
Month to date cooling degree days 100 118  
Year to date cooling degree days 684 657  
Since 1 June cooling degree days 555 587  
Growing Degree Days 20 (Base 50)    
Moisture  
Dew Point 55 °F    
Average Humidity 67    
Maximum Humidity 90    
Minimum Humidity 43    
Precipitation  
Precipitation 0.00 in 0.09 in 1.06 in (2010)
Month to date precipitation 0.80 1.30  
Year to date precipitation 25.64 26.62  
Snow  
Snow 0.00 in 0.00 in 0.00 in ()
Month to date snowfall 0.0 0.0  
Since 1 June snowfall 0.0 0.0  
Since 1 July snowfall 0.0 0.0  
Snow Depth 0.00 in    
Sea Level Pressure  
Sea Level Pressure 30.02 in    
Wind  
Wind Speed 7 mph (NNW)    
Max Wind Speed 16 mph    
Max Gust Speed 22 mph    
Visibility 10 miles    
Events      
T = Trace of Precipitation, MM = Missing Value Source: NWS Daily Summary

Daily Weather History Graph

Daily Weather History Graph

Search for Another Location

Airport:

Trip Planner

Search our weather history database for the weather conditions in past years. The results will help you decide how hot, cold, wet, or windy it might be!

Date:

Astronomy

Aug. 14, 2014 Rise Set
Actual Time 6:47 AM EDT 8:34 PM EDT
Civil Twilight 6:18 AM EDT 9:03 PM EDT
Nautical Twilight 5:43 AM EDT 9:38 PM EDT
Astronomical Twilight 5:05 AM EDT 10:16 PM EDT
Moon 10:57 PM EDT (8/14) 11:23 AM EDT (8/14)
Length of Visible Light 14h 45m
Length of Day
13h 46m
Waning Gibbous, 79% of the Moon is Illuminated
Aug 14
Waning Gibbous
Aug 17
Last Quarter
Aug 25
New
Sep 2
First Quarter
Sep 8
Full

Hourly Weather History & Observations

Time (EDT) Temp. Dew Point Humidity Pressure Visibility Wind Dir Wind Speed Gust Speed Precip Events Conditions
12:56 AM 68.0 °F 57.9 °F 70% 30.02 in 10.0 mi West 9.2 mph - N/A   Scattered Clouds
1:56 AM 66.0 °F 59.0 °F 78% 30.01 in 10.0 mi West 9.2 mph - N/A   Scattered Clouds
2:56 AM 66.9 °F 60.1 °F 79% 30.00 in 10.0 mi West 8.1 mph - N/A   Scattered Clouds
3:56 AM 66.0 °F 60.1 °F 81% 29.99 in 10.0 mi WNW 8.1 mph - N/A   Overcast
4:56 AM 64.0 °F 60.1 °F 87% 30.00 in 10.0 mi NNW 5.8 mph - N/A   Mostly Cloudy
5:56 AM 62.1 °F 59.0 °F 90% 30.01 in 10.0 mi NNW 5.8 mph - N/A   Scattered Clouds
6:56 AM 61.0 °F 57.9 °F 90% 30.03 in 10.0 mi NW 5.8 mph - N/A   Scattered Clouds
7:56 AM 62.1 °F 57.0 °F 84% 30.04 in 10.0 mi NNW 5.8 mph - N/A   Mostly Cloudy
8:56 AM 64.9 °F 54.0 °F 68% 30.06 in 10.0 mi NNE 6.9 mph - N/A   Scattered Clouds
9:56 AM 68.0 °F 53.1 °F 59% 30.07 in 10.0 mi North 6.9 mph - N/A   Mostly Cloudy
10:56 AM 71.1 °F 53.1 °F 53% 30.06 in 10.0 mi NE 3.5 mph - N/A   Partly Cloudy
11:56 AM 73.0 °F 52.0 °F 48% 30.06 in 10.0 mi Variable 4.6 mph - N/A   Scattered Clouds
12:56 PM 75.9 °F 52.0 °F 43% 30.04 in 10.0 mi NW 5.8 mph - N/A   Partly Cloudy
1:56 PM 75.9 °F 53.1 °F 45% 30.03 in 10.0 mi NNW 10.4 mph - N/A   Scattered Clouds
2:56 PM 77.0 °F 54.0 °F 45% 30.02 in 10.0 mi Variable 5.8 mph - N/A   Scattered Clouds
3:56 PM 75.9 °F 54.0 °F 46% 30.01 in 10.0 mi North 6.9 mph - N/A   Scattered Clouds
4:56 PM 75.9 °F 55.0 °F 48% 30.01 in 10.0 mi NNW 8.1 mph - N/A   Scattered Clouds
5:56 PM 75.9 °F 55.9 °F 50% 30.00 in 10.0 mi North 11.5 mph - N/A   Scattered Clouds
6:56 PM 73.9 °F 55.9 °F 53% 30.00 in 10.0 mi North 10.4 mph 18.4 mph N/A   Partly Cloudy
7:56 PM 72.0 °F 54.0 °F 53% 30.00 in 10.0 mi North 6.9 mph - N/A   Partly Cloudy
8:56 PM 66.9 °F 52.0 °F 59% 30.01 in 10.0 mi North 4.6 mph - N/A   Partly Cloudy
9:56 PM 64.9 °F 52.0 °F 63% 30.02 in 10.0 mi NNW 5.8 mph - N/A   Clear
10:56 PM 64.0 °F 52.0 °F 65% 30.03 in 10.0 mi NNW 4.6 mph - N/A   Clear
11:56 PM 61.0 °F 51.1 °F 70% 30.04 in 10.0 mi NW 4.6 mph - N/A   Clear